Time,TemperatureF,DewpointF,PressureIn,WindDirection,WindDirectionDegrees,WindSpeedMPH,WindSpeedGustMPH,Humidity,HourlyPrecipIn,Conditions,Clouds,dailyrainin,SoftwareType,DateUTC
2015-07-29 00:02:00,71.6,70.7,29.83,SW,230,4.0,4.0,97,0.00,,---,0.00,VWS V15.00,2015-07-29 04:02:00,
2015-07-29 00:07:00,71.6,70.7,29.83,SW,223,4.9,5.4,97,0.00,,---,0.00,VWS V15.00,2015-07-29 04:07:00,
2015-07-29 00:17:00,71.4,70.5,29.83,SW,222,5.4,5.4,97,0.00,,---,0.00,VWS V15.00,2015-07-29 04:17:00,
2015-07-29 00:22:00,71.4,70.5,29.83,SW,223,4.5,4.5,97,0.00,,---,0.00,VWS V15.00,2015-07-29 04:22:00,
2015-07-29 00:27:00,71.8,70.9,29.83,SW,229,3.6,3.6,97,0.00,,---,0.00,VWS V15.00,2015-07-29 04:27:00,
2015-07-29 00:32:00,71.8,70.9,29.83,SW,229,4.0,4.0,97,0.00,,---,0.00,VWS V15.00,2015-07-29 04:32:00,
2015-07-29 00:37:00,71.6,70.7,29.80,SW,230,0.0,0.0,97,0.00,,---,0.00,VWS V15.00,2015-07-29 04:37:00,
2015-07-29 00:42:00,71.4,70.5,29.80,SW,230,0.0,0.0,97,0.00,,---,0.00,VWS V15.00,2015-07-29 04:42:00,
2015-07-29 00:47:00,71.4,70.5,29.80,SW,229,4.9,4.9,97,0.00,,---,0.00,VWS V15.00,2015-07-29 04:47:00,
2015-07-29 00:52:00,71.6,70.7,29.80,SW,233,3.6,19.0,97,0.00,,---,0.00,VWS V15.00,2015-07-29 04:52:00,
2015-07-29 00:57:00,71.4,70.5,29.80,WSW,240,4.5,5.8,97,0.00,,---,0.00,VWS V15.00,2015-07-29 04:57:00,
2015-07-29 01:02:00,71.4,70.5,29.80,WSW,246,4.5,5.8,97,0.00,,---,0.00,VWS V15.00,2015-07-29 05:02:00,
2015-07-29 01:07:00,71.2,70.3,29.83,WSW,242,4.9,5.8,97,0.00,,---,0.00,VWS V15.00,2015-07-29 05:07:00,
2015-07-29 01:12:00,71.2,70.3,29.83,WSW,247,3.6,4.5,97,0.00,,---,0.00,VWS V15.00,2015-07-29 05:12:00,
2015-07-29 01:17:00,71.1,70.2,29.83,WSW,246,0.0,3.1,97,0.00,,---,0.00,VWS V15.00,2015-07-29 05:17:00,
2015-07-29 01:22:00,70.9,70.0,29.83,WSW,243,0.0,0.0,97,0.00,,---,0.00,VWS V15.00,2015-07-29 05:22:00,
2015-07-29 01:27:00,70.9,70.0,29.83,WSW,243,3.6,3.6,97,0.00,,---,0.00,VWS V15.00,2015-07-29 05:27:00,
2015-07-29 01:32:00,70.9,70.0,29.83,WSW,243,0.0,0.0,97,0.00,,---,0.00,VWS V15.00,2015-07-29 05:32:00,
2015-07-29 01:37:00,70.7,69.8,29.83,WSW,243,0.0,0.0,97,0.00,,---,0.00,VWS V15.00,2015-07-29 05:37:00,
2015-07-29 01:47:00,70.3,69.4,29.83,WSW,243,0.0,0.0,97,0.00,,---,0.00,VWS V15.00,2015-07-29 05:47:00,
2015-07-29 01:52:00,70.3,69.4,29.80,WSW,243,0.0,0.0,97,0.00,,---,0.00,VWS V15.00,2015-07-29 05:52:00,
2015-07-29 01:57:00,70.5,69.6,29.80,WSW,243,0.0,0.0,97,0.00,,---,0.00,VWS V15.00,2015-07-29 05:57:00,
2015-07-29 02:02:00,70.5,69.6,29.80,WSW,243,0.0,0.0,97,0.00,,---,0.00,VWS V15.00,2015-07-29 06:02:00,
2015-07-29 02:07:00,70.5,69.6,29.80,WSW,243,4.5,4.5,97,0.00,,---,0.00,VWS V15.00,2015-07-29 06:07:00,
2015-07-29 02:12:00,70.3,69.4,29.80,WSW,243,0.0,0.0,97,0.00,,---,0.00,VWS V15.00,2015-07-29 06:12:00,
2015-07-29 02:17:00,70.3,69.4,29.80,WSW,243,0.0,0.0,97,0.00,,---,0.00,VWS V15.00,2015-07-29 06:17:00,
2015-07-29 02:22:00,70.2,69.3,29.80,WSW,243,0.0,0.0,97,0.00,,---,0.00,VWS V15.00,2015-07-29 06:22:00,
2015-07-29 02:27:00,70.2,69.3,29.80,WSW,241,3.1,3.6,97,0.00,,---,0.00,VWS V15.00,2015-07-29 06:27:00,
2015-07-29 02:32:00,70.0,69.1,29.80,WSW,241,2.7,3.1,97,0.00,,---,0.00,VWS V15.00,2015-07-29 06:32:00,
2015-07-29 02:37:00,70.0,69.1,29.80,WSW,240,0.0,3.1,97,0.00,,---,0.00,VWS V15.00,2015-07-29 06:37:00,
2015-07-29 02:42:00,70.0,69.1,29.80,SW,214,4.5,4.9,97,0.00,,---,0.00,VWS V15.00,2015-07-29 06:42:00,
2015-07-29 02:47:00,69.8,68.9,29.80,SW,217,3.6,4.5,97,0.00,,---,0.00,VWS V15.00,2015-07-29 06:47:00,
2015-07-29 02:52:00,70.0,69.1,29.80,SW,219,3.6,4.5,97,0.00,,---,0.00,VWS V15.00,2015-07-29 06:52:00,
2015-07-29 02:57:00,70.0,69.1,29.80,SW,219,5.4,6.3,97,0.00,,---,0.00,VWS V15.00,2015-07-29 06:57:00,
2015-07-29 03:02:00,70.3,69.4,29.80,SW,235,0.0,3.6,97,0.00,,---,0.00,VWS V15.00,2015-07-29 07:02:00,
2015-07-29 03:07:00,70.5,69.6,29.80,WSW,237,5.4,5.4,97,0.00,,---,0.00,VWS V15.00,2015-07-29 07:07:00,
2015-07-29 03:12:00,70.3,69.4,29.80,SW,235,3.1,3.6,97,0.00,,---,0.00,VWS V15.00,2015-07-29 07:12:00,
2015-07-29 03:17:00,70.3,69.4,29.80,SW,235,4.0,4.0,97,0.00,,---,0.00,VWS V15.00,2015-07-29 07:17:00,
2015-07-29 03:22:00,70.2,69.3,29.80,SW,236,0.0,0.0,97,0.00,,---,0.00,VWS V15.00,2015-07-29 07:22:00,
2015-07-29 03:27:00,70.0,69.1,29.80,SW,236,0.0,0.0,97,0.00,,---,0.00,VWS V15.00,2015-07-29 07:27:00,
2015-07-29 03:32:00,69.8,68.9,29.80,SW,236,0.0,0.0,97,0.00,,---,0.00,VWS V15.00,2015-07-29 07:32:00,
2015-07-29 03:42:00,70.0,69.1,29.80,SW,235,0.0,0.0,97,0.00,,---,0.00,VWS V15.00,2015-07-29 07:42:00,
2015-07-29 03:47:00,70.0,69.1,29.80,WSW,238,0.0,0.0,97,0.00,,---,0.00,VWS V15.00,2015-07-29 07:47:00,
2015-07-29 03:52:00,69.8,68.9,29.80,SW,236,0.0,0.0,97,0.00,,---,0.00,VWS V15.00,2015-07-29 07:52:00,
2015-07-29 03:57:00,69.8,68.9,29.80,WSW,237,0.0,0.0,97,0.00,,---,0.00,VWS V15.00,2015-07-29 07:57:00,
2015-07-29 04:02:00,69.6,68.7,29.80,WSW,237,0.0,0.0,97,0.00,,---,0.00,VWS V15.00,2015-07-29 08:02:00,
2015-07-29 04:06:00,69.4,68.6,29.80,SW,236,0.0,0.0,97,0.00,,---,0.00,VWS V15.00,2015-07-29 08:06:00,
2015-07-29 04:11:00,69.3,68.4,29.80,SW,236,0.0,0.0,97,0.00,,---,0.00,VWS V15.00,2015-07-29 08:11:00,
2015-07-29 04:16:00,69.3,68.4,29.80,WSW,237,0.0,0.0,97,0.00,,---,0.00,VWS V15.00,2015-07-29 08:16:00,
2015-07-29 04:21:00,69.3,68.4,29.80,WSW,237,0.0,0.0,97,0.00,,---,0.00,VWS V15.00,2015-07-29 08:21:00,
2015-07-29 04:26:00,69.1,68.2,29.80,SW,236,0.0,0.0,97,0.00,,---,0.00,VWS V15.00,2015-07-29 08:26:00,
2015-07-29 04:31:00,68.9,68.0,29.80,WSW,237,0.0,0.0,97,0.00,,---,0.00,VWS V15.00,2015-07-29 08:31:00,
2015-07-29 04:36:00,68.9,68.0,29.80,WSW,237,0.0,0.0,97,0.00,,---,0.00,VWS V15.00,2015-07-29 08:36:00,
2015-07-29 04:41:00,68.7,67.8,29.80,SW,236,0.0,0.0,97,0.00,,---,0.00,VWS V15.00,2015-07-29 08:41:00,
2015-07-29 04:46:00,68.9,68.0,29.80,WSW,237,0.0,0.0,97,0.00,,---,0.00,VWS V15.00,2015-07-29 08:46:00,
2015-07-29 04:51:00,68.7,67.8,29.80,WSW,237,0.0,0.0,97,0.00,,---,0.00,VWS V15.00,2015-07-29 08:51:00,
2015-07-29 04:56:00,68.5,67.7,29.80,SW,236,0.0,0.0,97,0.00,,---,0.00,VWS V15.00,2015-07-29 08:56:00,
2015-07-29 05:01:00,68.5,67.7,29.80,WSW,237,0.0,0.0,97,0.00,,---,0.00,VWS V15.00,2015-07-29 09:01:00,
2015-07-29 05:06:00,68.5,67.7,29.80,WSW,237,0.0,0.0,97,0.00,,---,0.00,VWS V15.00,2015-07-29 09:06:00,
2015-07-29 05:11:00,68.7,67.8,29.80,WSW,237,0.0,0.0,97,0.00,,---,0.00,VWS V15.00,2015-07-29 09:11:00,
2015-07-29 05:16:00,68.5,67.7,29.80,WSW,237,0.0,0.0,97,0.00,,---,0.00,VWS V15.00,2015-07-29 09:16:00,
2015-07-29 05:21:00,68.4,67.5,29.80,WSW,237,0.0,0.0,97,0.00,,---,0.00,VWS V15.00,2015-07-29 09:21:00,
2015-07-29 05:31:00,68.4,67.5,29.80,WSW,237,0.0,0.0,97,0.00,,---,0.00,VWS V15.00,2015-07-29 09:31:00,
2015-07-29 05:36:00,68.2,67.3,29.80,SW,236,0.0,0.0,97,0.00,,---,0.00,VWS V15.00,2015-07-29 09:36:00,
2015-07-29 05:41:00,68.2,67.3,29.80,WSW,237,0.0,0.0,97,0.00,,---,0.00,VWS V15.00,2015-07-29 09:41:00,
2015-07-29 05:46:00,69.1,68.2,29.80,WSW,237,0.0,0.0,97,0.00,,---,0.00,VWS V15.00,2015-07-29 09:46:00,
2015-07-29 05:51:00,69.8,68.9,29.80,WSW,237,0.0,0.0,97,0.00,,---,0.00,VWS V15.00,2015-07-29 09:51:00,
2015-07-29 05:56:00,69.8,68.9,29.80,SW,236,0.0,0.0,97,0.00,,---,0.00,VWS V15.00,2015-07-29 09:56:00,
2015-07-29 06:01:00,70.9,70.0,29.80,WSW,237,0.0,0.0,97,0.00,,---,0.00,VWS V15.00,2015-07-29 10:01:00,
2015-07-29 06:06:00,70.9,70.0,29.80,WSW,237,0.0,0.0,97,0.00,,---,0.00,VWS V15.00,2015-07-29 10:06:00,
2015-07-29 06:11:00,72.0,70.8,29.80,SW,220,0.0,0.0,96,0.00,,---,0.00,VWS V15.00,2015-07-29 10:11:00,
2015-07-29 06:21:00,73.9,68.1,29.80,SE,129,0.0,0.0,82,0.00,,---,0.00,VWS V15.00,2015-07-29 10:21:00,
2015-07-29 06:26:00,75.2,67.5,29.80,SE,129,0.0,0.0,77,0.00,,---,0.00,VWS V15.00,2015-07-29 10:26:00,
2015-07-29 06:31:00,75.7,66.5,29.80,SE,129,0.0,0.0,73,0.00,,---,0.00,VWS V15.00,2015-07-29 10:31:00,
2015-07-29 06:36:00,76.1,66.0,29.80,SE,129,0.0,0.0,71,0.00,,---,0.00,VWS V15.00,2015-07-29 10:36:00,
2015-07-29 06:41:00,74.7,66.6,29.80,NE,54,0.0,0.0,76,0.00,,---,0.00,VWS V15.00,2015-07-29 10:41:00,
2015-07-29 06:46:00,76.5,67.2,29.80,NW,314,3.6,3.6,73,0.00,,---,0.00,VWS V15.00,2015-07-29 10:46:00,
2015-07-29 06:51:00,77.9,66.9,29.83,WNW,293,2.7,3.6,69,0.00,,---,0.00,VWS V15.00,2015-07-29 10:51:00,
2015-07-29 06:56:00,79.0,66.7,29.83,WNW,291,4.0,5.8,66,0.00,,---,0.00,VWS V15.00,2015-07-29 10:56:00,
2015-07-29 07:01:00,79.5,66.3,29.83,WNW,294,3.6,4.5,64,0.00,,---,0.00,VWS V15.00,2015-07-29 11:01:00,
2015-07-29 07:06:00,79.7,66.5,29.83,WNW,295,0.0,0.0,64,0.00,,---,0.00,VWS V15.00,2015-07-29 11:06:00,
2015-07-29 07:11:00,80.6,65.9,29.83,WNW,292,4.9,5.4,61,0.00,,---,0.00,VWS V15.00,2015-07-29 11:11:00,
2015-07-29 07:16:00,81.0,65.3,29.83,WNW,295,0.0,3.1,59,0.00,,---,0.00,VWS V15.00,2015-07-29 11:16:00,
2015-07-29 07:21:00,81.0,65.3,29.83,WNW,301,4.9,5.4,59,0.00,,---,0.00,VWS V15.00,2015-07-29 11:21:00,
2015-07-29 07:26:00,81.7,65.5,29.83,WNW,297,3.1,4.5,58,0.00,,---,0.00,VWS V15.00,2015-07-29 11:26:00,
2015-07-29 07:31:00,82.4,64.6,29.83,WNW,298,4.9,5.4,55,0.00,,---,0.00,VWS V15.00,2015-07-29 11:31:00,
2015-07-29 07:36:00,82.8,63.9,29.83,WNW,300,4.0,4.9,53,0.00,,---,0.00,VWS V15.00,2015-07-29 11:36:00,
2015-07-29 07:41:00,82.9,63.0,29.83,WNW,300,5.4,5.4,51,0.00,,---,0.00,VWS V15.00,2015-07-29 11:41:00,
2015-07-29 07:46:00,83.3,64.4,29.83,WNW,303,3.1,3.6,53,0.00,,---,0.00,VWS V15.00,2015-07-29 11:46:00,
2015-07-29 07:51:00,83.3,63.9,29.83,WNW,291,4.5,5.4,52,0.00,,---,0.00,VWS V15.00,2015-07-29 11:51:00,
2015-07-29 07:56:00,83.3,62.7,29.83,NW,312,0.0,3.6,50,0.00,,---,0.00,VWS V15.00,2015-07-29 11:56:00,
2015-07-29 08:01:00,83.7,62.5,29.83,WNW,293,2.7,3.6,49,0.00,,---,0.00,VWS V15.00,2015-07-29 12:01:00,
2015-07-29 08:06:00,84.4,62.6,29.83,NW,318,6.3,6.9,48,0.00,,---,0.00,VWS V15.00,2015-07-29 12:06:00,
2015-07-29 08:11:00,84.4,62.6,29.83,WNW,291,3.1,3.1,48,0.00,,---,0.00,VWS V15.00,2015-07-29 12:11:00,
2015-07-29 08:16:00,84.4,62.0,29.83,NW,308,3.1,4.5,47,0.00,,---,0.00,VWS V15.00,2015-07-29 12:16:00,
2015-07-29 08:21:00,84.4,62.0,29.83,NNW,341,4.5,4.5,47,0.00,,---,0.00,VWS V15.00,2015-07-29 12:21:00,
2015-07-29 08:26:00,83.7,61.3,29.83,NW,307,4.5,4.5,47,0.00,,---,0.00,VWS V15.00,2015-07-29 12:26:00,
2015-07-29 08:31:00,84.0,62.2,29.83,WNW,298,4.5,4.5,48,0.00,,---,0.00,VWS V15.00,2015-07-29 12:31:00,
2015-07-29 08:36:00,83.8,62.1,29.83,NNW,327,0.0,0.0,48,0.00,,---,0.00,VWS V15.00,2015-07-29 12:36:00,
2015-07-29 08:41:00,84.0,62.8,29.83,NW,315,4.5,4.5,49,0.00,,---,0.00,VWS V15.00,2015-07-29 12:41:00,
2015-07-29 08:46:00,82.6,64.8,29.83,NW,311,0.0,0.0,55,0.00,,---,0.00,VWS V15.00,2015-07-29 12:46:00,
2015-07-29 08:51:00,83.1,65.8,29.83,NNW,331,4.0,4.0,56,0.00,,---,0.00,VWS V15.00,2015-07-29 12:51:00,
2015-07-29 08:56:00,82.9,65.1,29.83,North,2,4.5,4.5,55,0.00,,---,0.00,VWS V15.00,2015-07-29 12:56:00,
2015-07-29 09:01:00,82.9,64.6,29.83,NNW,330,0.0,4.5,54,0.00,,---,0.00,VWS V15.00,2015-07-29 13:01:00,
2015-07-29 09:06:00,83.3,63.9,29.83,NW,304,0.0,3.6,52,0.00,,---,0.00,VWS V15.00,2015-07-29 13:06:00,
2015-07-29 09:11:00,83.7,64.2,29.83,NW,315,4.9,5.4,52,0.00,,---,0.00,VWS V15.00,2015-07-29 13:11:00,
2015-07-29 09:16:00,83.8,64.3,29.83,NW,320,0.0,4.9,52,0.00,,---,0.00,VWS V15.00,2015-07-29 13:16:00,
2015-07-29 09:21:00,84.0,63.4,29.83,NNE,27,6.3,7.8,50,0.00,,---,0.00,VWS V15.00,2015-07-29 13:21:00,
2015-07-29 09:26:00,84.2,63.6,29.83,North,8,6.9,7.8,50,0.00,,---,0.00,VWS V15.00,2015-07-29 13:26:00,
2015-07-29 09:31:00,84.4,64.3,29.83,North,0,2.7,5.4,51,0.00,,---,0.00,VWS V15.00,2015-07-29 13:31:00,
2015-07-29 09:35:00,84.4,63.7,29.83,NNW,345,4.5,5.4,50,0.00,,---,0.00,VWS V15.00,2015-07-29 13:35:00,
2015-07-29 09:40:00,84.6,63.9,29.83,NNW,327,5.4,6.3,50,0.00,,---,0.00,VWS V15.00,2015-07-29 13:40:00,
2015-07-29 09:45:00,84.7,64.6,29.83,WNW,300,3.1,5.8,51,0.00,,---,0.00,VWS V15.00,2015-07-29 13:45:00,
2015-07-29 09:50:00,84.6,63.3,29.83,NW,304,5.8,5.8,49,0.00,,---,0.00,VWS V15.00,2015-07-29 13:50:00,
2015-07-29 09:55:00,85.3,63.4,29.83,NNW,338,3.6,6.3,48,0.00,,---,0.00,VWS V15.00,2015-07-29 13:55:00,
2015-07-29 10:00:00,85.5,63.0,29.83,NNW,329,2.7,4.9,47,0.00,,---,0.00,VWS V15.00,2015-07-29 14:00:00,
2015-07-29 10:05:00,85.8,61.4,29.83,NNE,32,5.4,5.4,44,0.00,,---,0.00,VWS V15.00,2015-07-29 14:05:00,
2015-07-29 10:10:00,86.4,61.2,29.83,NNW,334,4.5,6.9,43,0.00,,---,0.00,VWS V15.00,2015-07-29 14:10:00,
2015-07-29 10:15:00,86.7,61.6,29.83,NNE,32,5.8,6.9,43,0.00,,---,0.00,VWS V15.00,2015-07-29 14:15:00,
2015-07-29 10:20:00,88.5,61.8,29.83,NNE,22,3.1,11.6,41,0.00,,---,0.00,VWS V15.00,2015-07-29 14:20:00,
2015-07-29 10:25:00,87.6,60.3,29.83,NNW,330,5.8,6.3,40,0.00,,---,0.00,VWS V15.00,2015-07-29 14:25:00,
2015-07-29 10:30:00,87.6,61.0,29.83,NNW,330,3.6,4.5,41,0.00,,---,0.00,VWS V15.00,2015-07-29 14:30:00,
2015-07-29 10:35:00,87.1,59.8,29.83,NNW,330,0.0,2.7,40,0.00,,---,0.00,VWS V15.00,2015-07-29 14:35:00,
2015-07-29 10:40:00,88.0,60.7,29.83,NNE,19,2.7,3.6,40,0.00,,---,0.00,VWS V15.00,2015-07-29 14:40:00,
2015-07-29 10:45:00,88.3,59.5,29.83,NW,316,3.6,5.4,38,0.00,,---,0.00,VWS V15.00,2015-07-29 14:45:00,
2015-07-29 10:50:00,89.6,57.5,29.83,NW,313,0.0,0.0,34,0.00,,---,0.00,VWS V15.00,2015-07-29 14:50:00,
2015-07-29 10:55:00,89.6,57.5,29.83,NW,307,0.0,2.7,34,0.00,,---,0.00,VWS V15.00,2015-07-29 14:55:00,
2015-07-29 11:05:00,90.7,55.9,29.83,WNW,286,4.0,6.7,31,0.00,,---,0.00,VWS V15.00,2015-07-29 15:05:00,
2015-07-29 11:10:00,90.5,55.8,29.83,NW,318,4.0,6.7,31,0.00,,---,0.00,VWS V15.00,2015-07-29 15:10:00,
2015-07-29 11:15:00,90.9,57.0,29.83,WSW,238,0.0,0.0,32,0.00,,---,0.00,VWS V15.00,2015-07-29 15:15:00,
2015-07-29 11:20:00,92.1,57.2,29.83,West,279,4.5,4.5,31,0.00,,---,0.00,VWS V15.00,2015-07-29 15:20:00,
2015-07-29 11:25:00,91.2,56.4,29.83,NNW,336,6.7,6.7,31,0.00,,---,0.00,VWS V15.00,2015-07-29 15:25:00,
2015-07-29 11:30:00,91.2,57.3,29.83,NW,309,0.0,4.9,32,0.00,,---,0.00,VWS V15.00,2015-07-29 15:30:00,
2015-07-29 11:35:00,91.2,56.4,29.83,WSW,244,4.5,4.5,31,0.00,,---,0.00,VWS V15.00,2015-07-29 15:35:00,
2015-07-29 11:40:00,91.8,56.9,29.83,WNW,302,4.5,5.4,31,0.00,,---,0.00,VWS V15.00,2015-07-29 15:40:00,
2015-07-29 11:45:00,91.2,55.5,29.83,WSW,245,8.3,10.1,30,0.00,,---,0.00,VWS V15.00,2015-07-29 15:45:00,
2015-07-29 11:50:00,91.6,55.8,29.80,SW,223,4.5,4.5,30,0.00,,---,0.00,VWS V15.00,2015-07-29 15:50:00,
2015-07-29 11:55:00,93.9,61.3,29.80,SSW,193,8.7,8.7,34,0.00,,---,0.00,VWS V15.00,2015-07-29 15:55:00,
2015-07-29 12:00:00,95.4,64.2,29.80,SW,226,6.7,7.4,36,0.00,,---,0.00,VWS V15.00,2015-07-29 16:00:00,
2015-07-29 12:05:00,96.3,62.5,29.80,SSW,208,8.3,8.3,33,0.00,,---,0.00,VWS V15.00,2015-07-29 16:05:00,
2015-07-29 12:10:00,96.4,61.8,29.80,SSW,211,5.4,11.0,32,0.00,,---,0.00,VWS V15.00,2015-07-29 16:10:00,
2015-07-29 12:15:00,95.4,60.0,29.80,WSW,241,6.9,6.9,31,0.00,,---,0.00,VWS V15.00,2015-07-29 16:15:00,
2015-07-29 12:20:00,95.2,60.7,29.80,SW,224,8.3,11.6,32,0.00,,---,0.00,VWS V15.00,2015-07-29 16:20:00,
2015-07-29 12:25:00,94.5,63.4,29.80,SSW,199,6.7,10.5,36,0.00,,---,0.00,VWS V15.00,2015-07-29 16:25:00,
2015-07-29 12:30:00,95.7,62.0,29.80,SSW,198,10.5,10.5,33,0.00,,---,0.00,VWS V15.00,2015-07-29 16:30:00,
2015-07-29 12:35:00,95.4,61.7,29.80,SSW,207,10.5,10.5,33,0.00,,---,0.00,VWS V15.00,2015-07-29 16:35:00,
2015-07-29 12:40:00,94.6,61.9,29.80,SSE,163,7.8,9.6,34,0.00,,---,0.00,VWS V15.00,2015-07-29 16:40:00,
2015-07-29 12:45:00,95.0,62.3,29.80,SSW,210,9.6,9.6,34,0.00,,---,0.00,VWS V15.00,2015-07-29 16:45:00,
2015-07-29 12:50:00,95.0,58.7,29.80,SSW,192,9.2,9.2,30,0.00,,---,0.00,VWS V15.00,2015-07-29 16:50:00,
2015-07-29 12:55:00,95.0,59.7,29.80,SSW,212,9.6,10.5,31,0.00,,---,0.00,VWS V15.00,2015-07-29 16:55:00,
2015-07-29 13:00:00,95.0,58.7,29.80,South,189,9.2,9.2,30,0.00,,---,0.00,VWS V15.00,2015-07-29 17:00:00,
2015-07-29 13:10:00,94.8,58.6,29.80,SSW,192,9.2,9.2,30,0.00,,---,0.00,VWS V15.00,2015-07-29 17:10:00,
2015-07-29 13:15:00,94.6,58.4,29.80,SSW,210,7.4,8.3,30,0.00,,---,0.00,VWS V15.00,2015-07-29 17:15:00,
2015-07-29 13:20:00,95.4,57.1,29.80,South,177,8.3,12.5,28,0.00,,---,0.00,VWS V15.00,2015-07-29 17:20:00,
2015-07-29 13:25:00,95.5,57.3,29.80,South,188,8.7,8.7,28,0.00,,---,0.00,VWS V15.00,2015-07-29 17:25:00,
2015-07-29 13:30:00,95.9,57.6,29.80,South,182,11.6,13.0,28,0.00,,---,0.00,VWS V15.00,2015-07-29 17:30:00,
2015-07-29 13:35:00,95.5,58.2,29.80,South,172,10.5,11.6,29,0.00,,---,0.00,VWS V15.00,2015-07-29 17:35:00,
2015-07-29 13:40:00,95.0,59.7,29.80,SSW,208,8.7,9.2,31,0.00,,---,0.00,VWS V15.00,2015-07-29 17:40:00,
2015-07-29 13:45:00,94.3,58.1,29.80,SW,218,9.2,11.6,30,0.00,,---,0.00,VWS V15.00,2015-07-29 17:45:00,
2015-07-29 13:55:00,94.6,59.3,29.80,SSW,202,4.0,7.4,31,0.00,,---,0.00,VWS V15.00,2015-07-29 17:55:00,
2015-07-29 14:00:00,94.3,59.9,29.80,SW,229,4.5,6.3,32,0.00,,---,0.00,VWS V15.00,2015-07-29 18:00:00,
2015-07-29 14:05:00,93.2,60.7,29.80,SW,217,10.5,11.2,34,0.00,,---,0.00,VWS V15.00,2015-07-29 18:05:00,
2015-07-29 14:10:00,93.6,63.4,29.80,SSW,213,10.5,12.1,37,0.00,,---,0.00,VWS V15.00,2015-07-29 18:10:00,
2015-07-29 14:15:00,93.9,65.2,29.80,South,180,8.7,10.5,39,0.00,,---,0.00,VWS V15.00,2015-07-29 18:15:00,
2015-07-29 14:20:00,93.2,65.3,29.80,SW,216,11.0,11.0,40,0.00,,---,0.00,VWS V15.00,2015-07-29 18:20:00,
2015-07-29 14:25:00,92.3,64.5,29.80,SW,220,8.7,8.7,40,0.00,,---,0.00,VWS V15.00,2015-07-29 18:25:00,
2015-07-29 14:30:00,91.0,64.8,29.80,SSW,209,8.7,8.7,42,0.00,,---,0.00,VWS V15.00,2015-07-29 18:30:00,
2015-07-29 14:35:00,92.1,65.1,29.80,SSW,201,9.2,14.3,41,0.00,,---,0.00,VWS V15.00,2015-07-29 18:35:00,
2015-07-29 14:40:00,92.1,63.6,29.80,SSW,213,4.5,12.5,39,0.00,,---,0.00,VWS V15.00,2015-07-29 18:40:00,
2015-07-29 14:45:00,92.8,64.3,29.80,SSW,212,8.3,13.0,39,0.00,,---,0.00,VWS V15.00,2015-07-29 18:45:00,
2015-07-29 14:50:00,93.6,63.4,29.80,SSW,208,8.3,9.2,37,0.00,,---,0.00,VWS V15.00,2015-07-29 18:50:00,
2015-07-29 14:55:00,95.0,60.5,29.80,SW,217,6.9,10.5,32,0.00,,---,0.00,VWS V15.00,2015-07-29 18:55:00,
2015-07-29 15:00:00,95.2,62.4,29.80,SW,227,8.7,9.6,34,0.00,,---,0.00,VWS V15.00,2015-07-29 19:00:00,
2015-07-29 15:04:00,93.6,61.0,29.80,SW,220,11.0,11.0,34,0.00,,---,0.00,VWS V15.00,2015-07-29 19:04:00,
2015-07-29 15:09:00,95.0,60.5,29.80,SSW,200,10.5,14.8,32,0.00,,---,0.00,VWS V15.00,2015-07-29 19:09:00,
2015-07-29 15:14:00,94.3,59.0,29.80,SSW,200,8.3,9.6,31,0.00,,---,0.00,VWS V15.00,2015-07-29 19:14:00,
2015-07-29 15:19:00,92.8,59.5,29.80,SSW,193,6.9,12.1,33,0.00,,---,0.00,VWS V15.00,2015-07-29 19:19:00,
2015-07-29 15:24:00,93.2,59.8,29.80,SSW,195,12.1,12.1,33,0.00,,---,0.00,VWS V15.00,2015-07-29 19:24:00,
2015-07-29 15:29:00,92.5,58.4,29.80,SSW,197,12.1,13.4,32,0.00,,---,0.00,VWS V15.00,2015-07-29 19:29:00,
2015-07-29 15:34:00,92.8,58.7,29.80,South,172,8.3,16.8,32,0.00,,---,0.00,VWS V15.00,2015-07-29 19:34:00,
2015-07-29 15:39:00,92.7,60.2,29.80,SW,234,9.2,13.4,34,0.00,,---,0.00,VWS V15.00,2015-07-29 19:39:00,
2015-07-29 15:44:00,91.8,61.0,29.80,SSW,206,14.3,15.4,36,0.00,,---,0.00,VWS V15.00,2015-07-29 19:44:00,
2015-07-29 15:49:00,91.6,61.7,29.77,SSW,211,11.0,13.4,37,0.00,,---,0.00,VWS V15.00,2015-07-29 19:49:00,
2015-07-29 15:54:00,91.2,62.1,29.77,SSW,211,7.4,9.2,38,0.00,,---,0.00,VWS V15.00,2015-07-29 19:54:00,
2015-07-29 15:59:00,91.2,62.1,29.77,South,187,11.6,13.9,38,0.00,,---,0.00,VWS V15.00,2015-07-29 19:59:00,
2015-07-29 16:04:00,91.6,62.4,29.77,SSW,199,11.0,11.0,38,0.00,,---,0.00,VWS V15.00,2015-07-29 20:04:00,
2015-07-29 16:09:00,91.6,62.4,29.77,SW,222,11.0,12.5,38,0.00,,---,0.00,VWS V15.00,2015-07-29 20:09:00,
2015-07-29 16:14:00,91.6,62.4,29.77,SSW,198,9.2,9.6,38,0.00,,---,0.00,VWS V15.00,2015-07-29 20:14:00,
2015-07-29 16:19:00,91.9,63.5,29.77,South,189,11.0,11.0,39,0.00,,---,0.00,VWS V15.00,2015-07-29 20:19:00,
2015-07-29 16:24:00,92.1,62.9,29.77,South,171,4.5,9.2,38,0.00,,---,0.00,VWS V15.00,2015-07-29 20:24:00,
2015-07-29 16:29:00,92.7,62.6,29.77,SSW,192,6.9,7.8,37,0.00,,---,0.00,VWS V15.00,2015-07-29 20:29:00,
2015-07-29 16:34:00,91.8,62.6,29.77,South,183,10.1,11.0,38,0.00,,---,0.00,VWS V15.00,2015-07-29 20:34:00,
2015-07-29 16:39:00,92.3,63.0,29.77,SSE,166,7.8,11.0,38,0.00,,---,0.00,VWS V15.00,2015-07-29 20:39:00,
2015-07-29 16:44:00,90.5,62.2,29.77,SW,228,11.0,13.4,39,0.00,,---,0.00,VWS V15.00,2015-07-29 20:44:00,
2015-07-29 16:49:00,91.2,63.5,29.77,South,179,10.5,10.5,40,0.00,,---,0.00,VWS V15.00,2015-07-29 20:49:00,
2015-07-29 16:54:00,91.4,62.2,29.77,South,180,10.5,12.1,38,0.00,,---,0.00,VWS V15.00,2015-07-29 20:54:00,
2015-07-29 16:59:00,90.9,61.8,29.77,SW,216,9.6,12.1,38,0.00,,---,0.00,VWS V15.00,2015-07-29 20:59:00,
2015-07-29 17:04:00,90.5,62.2,29.77,SSW,208,5.4,10.5,39,0.00,,---,0.00,VWS V15.00,2015-07-29 21:04:00,
2015-07-29 17:14:00,89.2,61.8,29.77,SSW,195,11.6,11.6,40,0.00,,---,0.00,VWS V15.00,2015-07-29 21:14:00,
2015-07-29 17:19:00,89.6,62.8,29.77,SSW,195,5.4,9.2,41,0.00,,---,0.00,VWS V15.00,2015-07-29 21:19:00,
2015-07-29 17:24:00,89.4,61.9,29.77,SW,224,3.6,8.3,40,0.00,,---,0.00,VWS V15.00,2015-07-29 21:24:00,
2015-07-29 17:29:00,89.2,63.2,29.77,SSW,210,9.2,9.2,42,0.00,,---,0.00,VWS V15.00,2015-07-29 21:29:00,
2015-07-29 17:34:00,89.1,63.0,29.77,SSW,210,6.9,8.3,42,0.00,,---,0.00,VWS V15.00,2015-07-29 21:34:00,
2015-07-29 17:39:00,89.1,62.3,29.77,South,185,7.4,7.4,41,0.00,,---,0.00,VWS V15.00,2015-07-29 21:39:00,
2015-07-29 17:44:00,89.2,63.2,29.77,SSW,199,9.6,13.4,42,0.00,,---,0.00,VWS V15.00,2015-07-29 21:44:00,
2015-07-29 17:49:00,88.7,61.3,29.77,SW,219,11.0,11.6,40,0.00,,---,0.00,VWS V15.00,2015-07-29 21:49:00,
2015-07-29 17:54:00,88.0,60.0,29.77,SW,220,9.2,12.1,39,0.00,,---,0.00,VWS V15.00,2015-07-29 21:54:00,
2015-07-29 17:59:00,87.6,61.0,29.77,SSW,200,11.2,12.5,41,0.00,,---,0.00,VWS V15.00,2015-07-29 21:59:00,
2015-07-29 18:04:00,86.9,60.4,29.77,SSW,196,17.2,17.2,41,0.00,,---,0.00,VWS V15.00,2015-07-29 22:04:00,
2015-07-29 18:09:00,85.8,60.8,29.77,SW,231,8.3,12.5,43,0.00,,---,0.00,VWS V15.00,2015-07-29 22:09:00,
2015-07-29 18:14:00,86.5,62.7,29.77,SSW,212,13.9,13.9,45,0.00,,---,0.00,VWS V15.00,2015-07-29 22:14:00,
2015-07-29 18:19:00,86.4,63.2,29.77,SSW,205,6.7,9.2,46,0.00,,---,0.00,VWS V15.00,2015-07-29 22:19:00,
2015-07-29 18:24:00,86.9,63.7,29.77,SW,225,15.9,15.9,46,0.00,,---,0.00,VWS V15.00,2015-07-29 22:24:00,
2015-07-29 18:29:00,89.2,63.2,29.77,SSW,203,12.1,14.3,42,0.00,,---,0.00,VWS V15.00,2015-07-29 22:29:00,
2015-07-29 18:34:00,89.8,63.0,29.77,SW,226,6.3,6.9,41,0.00,,---,0.00,VWS V15.00,2015-07-29 22:34:00,
2015-07-29 18:39:00,90.0,63.1,29.77,WSW,238,9.6,11.2,41,0.00,,---,0.00,VWS V15.00,2015-07-29 22:39:00,
2015-07-29 18:44:00,90.1,63.3,29.77,SSW,208,8.3,11.0,41,0.00,,---,0.00,VWS V15.00,2015-07-29 22:44:00,
2015-07-29 18:49:00,89.8,64.3,29.77,SW,215,8.7,11.0,43,0.00,,---,0.00,VWS V15.00,2015-07-29 22:49:00,
2015-07-29 18:54:00,91.0,64.1,29.77,SSW,213,7.4,9.6,41,0.00,,---,0.00,VWS V15.00,2015-07-29 22:54:00,
2015-07-29 18:59:00,91.4,64.4,29.77,SSW,210,12.5,13.0,41,0.00,,---,0.00,VWS V15.00,2015-07-29 22:59:00,
2015-07-29 19:04:00,91.0,64.1,29.77,SW,226,12.5,12.5,41,0.00,,---,0.00,VWS V15.00,2015-07-29 23:04:00,
2015-07-29 19:09:00,89.4,63.3,29.77,SW,216,6.7,6.7,42,0.00,,---,0.00,VWS V15.00,2015-07-29 23:09:00,
2015-07-29 19:14:00,89.8,65.0,29.77,SSW,210,6.9,6.9,44,0.00,,---,0.00,VWS V15.00,2015-07-29 23:14:00,
2015-07-29 19:19:00,89.4,65.9,29.77,SSW,206,7.4,7.4,46,0.00,,---,0.00,VWS V15.00,2015-07-29 23:19:00,
2015-07-29 19:24:00,88.7,66.5,29.77,SW,222,6.3,6.7,48,0.00,,---,0.00,VWS V15.00,2015-07-29 23:24:00,
2015-07-29 19:34:00,85.6,67.1,29.77,SSW,193,6.9,6.9,54,0.00,,---,0.00,VWS V15.00,2015-07-29 23:34:00,
2015-07-29 19:39:00,84.7,67.8,29.77,SW,221,7.8,7.8,57,0.00,,---,0.00,VWS V15.00,2015-07-29 23:39:00,
2015-07-29 19:44:00,83.5,68.6,29.77,SW,218,4.9,6.7,61,0.00,,---,0.00,VWS V15.00,2015-07-29 23:44:00,
2015-07-29 19:49:00,82.0,68.2,29.77,SSE,164,6.3,7.8,63,0.00,,---,0.00,VWS V15.00,2015-07-29 23:49:00,
2015-07-29 19:54:00,81.1,68.3,29.77,SSW,213,6.3,10.5,65,0.00,,---,0.00,VWS V15.00,2015-07-29 23:54:00,
2015-07-29 19:59:00,80.2,67.9,29.77,SSW,192,8.3,9.2,66,0.00,,---,0.00,VWS V15.00,2015-07-29 23:59:00,
2015-07-29 20:09:00,79.3,68.7,29.77,SSW,199,4.5,6.9,70,0.00,,---,0.00,VWS V15.00,2015-07-30 00:09:00,
2015-07-29 20:14:00,79.0,68.8,29.77,SW,221,6.9,8.7,71,0.00,,---,0.00,VWS V15.00,2015-07-30 00:14:00,
2015-07-29 20:19:00,78.6,68.8,29.77,SW,216,4.9,9.2,72,0.00,,---,0.00,VWS V15.00,2015-07-30 00:19:00,
2015-07-29 20:23:00,78.3,68.9,29.77,SW,226,6.3,8.3,73,0.00,,---,0.00,VWS V15.00,2015-07-30 00:23:00,
2015-07-29 20:33:00,77.9,69.7,29.77,SW,229,5.8,8.3,76,0.00,,---,0.00,VWS V15.00,2015-07-30 00:33:00,
2015-07-29 20:38:00,77.9,70.1,29.77,SW,215,8.7,9.6,77,0.00,,---,0.00,VWS V15.00,2015-07-30 00:38:00,
2015-07-29 20:43:00,77.7,70.3,29.77,SW,233,6.7,8.7,78,0.00,,---,0.00,VWS V15.00,2015-07-30 00:43:00,
2015-07-29 20:48:00,77.7,69.9,29.77,SW,222,4.9,8.3,77,0.00,,---,0.00,VWS V15.00,2015-07-30 00:48:00,
2015-07-29 20:53:00,77.9,69.7,29.77,SW,229,3.1,4.5,76,0.00,,---,0.00,VWS V15.00,2015-07-30 00:53:00,
2015-07-29 20:58:00,77.9,68.6,29.77,SSW,211,5.4,8.3,73,0.00,,---,0.00,VWS V15.00,2015-07-30 00:58:00,
2015-07-29 21:03:00,78.1,67.5,29.77,SW,217,4.9,7.4,70,0.00,,---,0.00,VWS V15.00,2015-07-30 01:03:00,
2015-07-29 21:08:00,77.9,67.3,29.77,SSW,213,5.4,6.3,70,0.00,,---,0.00,VWS V15.00,2015-07-30 01:08:00,
2015-07-29 21:13:00,77.7,67.2,29.77,SW,214,6.9,6.9,70,0.00,,---,0.00,VWS V15.00,2015-07-30 01:13:00,
2015-07-29 21:18:00,77.7,67.2,29.77,SSW,207,5.4,5.8,70,0.00,,---,0.00,VWS V15.00,2015-07-30 01:18:00,
2015-07-29 21:23:00,77.5,67.4,29.77,SW,217,5.4,5.4,71,0.00,,---,0.00,VWS V15.00,2015-07-30 01:23:00,
2015-07-29 21:28:00,77.5,67.4,29.77,SW,224,3.6,6.3,71,0.00,,---,0.00,VWS V15.00,2015-07-30 01:28:00,
2015-07-29 21:33:00,77.2,67.1,29.77,SW,227,6.3,11.0,71,0.00,,---,0.00,VWS V15.00,2015-07-30 01:33:00,
2015-07-29 21:38:00,77.0,66.9,29.77,SSW,195,5.8,6.3,71,0.00,,---,0.00,VWS V15.00,2015-07-30 01:38:00,
2015-07-29 21:43:00,76.6,67.3,29.77,SW,220,6.9,10.5,73,0.00,,---,0.00,VWS V15.00,2015-07-30 01:43:00,
2015-07-29 21:48:00,76.8,67.9,29.77,WSW,238,9.6,9.6,74,0.00,,---,0.00,VWS V15.00,2015-07-30 01:48:00,
2015-07-29 21:53:00,76.8,67.9,29.77,SW,219,6.9,6.9,74,0.00,,---,0.00,VWS V15.00,2015-07-30 01:53:00,
2015-07-29 21:58:00,76.6,67.7,29.77,SW,232,4.0,6.9,74,0.00,,---,0.00,VWS V15.00,2015-07-30 01:58:00,
2015-07-29 22:03:00,76.6,68.1,29.77,SW,216,6.7,9.6,75,0.00,,---,0.00,VWS V15.00,2015-07-30 02:03:00,
2015-07-29 22:08:00,76.5,67.9,29.77,SW,219,6.9,6.9,75,0.00,,---,0.00,VWS V15.00,2015-07-30 02:08:00,
2015-07-29 22:13:00,76.5,68.3,29.77,SW,236,5.4,6.9,76,0.00,,---,0.00,VWS V15.00,2015-07-30 02:13:00,
2015-07-29 22:18:00,76.5,68.3,29.77,SSW,212,5.4,6.3,76,0.00,,---,0.00,VWS V15.00,2015-07-30 02:18:00,
2015-07-29 22:23:00,76.1,68.0,29.77,SW,214,4.9,9.6,76,0.00,,---,0.00,VWS V15.00,2015-07-30 02:23:00,
2015-07-29 22:28:00,76.1,68.4,29.77,SW,234,8.7,10.5,77,0.00,,---,0.00,VWS V15.00,2015-07-30 02:28:00,
2015-07-29 22:33:00,76.1,68.4,29.77,WSW,243,6.7,11.2,77,0.00,,---,0.00,VWS V15.00,2015-07-30 02:33:00,
2015-07-29 22:38:00,76.1,68.4,29.77,SW,223,6.3,8.3,77,0.00,,---,0.00,VWS V15.00,2015-07-30 02:38:00,
2015-07-29 22:43:00,76.1,68.4,29.77,SW,219,6.3,6.9,77,0.00,,---,0.00,VWS V15.00,2015-07-30 02:43:00,
2015-07-29 22:48:00,76.1,68.8,29.77,SW,218,8.7,9.6,78,0.00,,---,0.00,VWS V15.00,2015-07-30 02:48:00,
2015-07-29 22:53:00,76.1,68.4,29.77,WSW,238,6.3,8.3,77,0.00,,---,0.00,VWS V15.00,2015-07-30 02:53:00,
2015-07-29 22:58:00,76.1,68.8,29.77,SW,234,6.7,9.6,78,0.00,,---,0.00,VWS V15.00,2015-07-30 02:58:00,
2015-07-29 23:03:00,75.9,68.6,29.77,WSW,243,6.7,8.3,78,0.00,,---,0.00,VWS V15.00,2015-07-30 03:03:00,
2015-07-29 23:08:00,75.9,68.6,29.77,SW,230,7.4,10.5,78,0.00,,---,0.00,VWS V15.00,2015-07-30 03:08:00,
2015-07-29 23:18:00,75.9,68.9,29.77,SSW,210,9.6,10.5,79,0.00,,---,0.00,VWS V15.00,2015-07-30 03:18:00,
2015-07-29 23:23:00,75.7,68.8,29.77,SW,215,4.0,6.3,79,0.00,,---,0.00,VWS V15.00,2015-07-30 03:23:00,
2015-07-29 23:28:00,75.6,69.0,29.77,SW,231,6.3,6.7,80,0.00,,---,0.00,VWS V15.00,2015-07-30 03:28:00,